CW2654 Weather Reports


time (UTC)temp
C
wind
direction
speed
KPH
gust
KPH
rain 1hr
cm
rain 24hr
cm
rain mn
cm
humidity
%
barometer
mb
20260503020056 18 0 0.0 3.2 0.00 0.08 0.08 78 1012.3
20260503014621 18 0 0.0 3.2 0.00 0.08 0.08 76 1012.0
20260503013050 19 0 1.6 4.8 0.00 0.08 0.08 75 1012.0
20260503011601 19 189 0.0 4.8 0.00 0.08 0.08 76 1012.1
20260503010058 19 0 0.0 4.8 0.00 0.08 0.08 75 1012.0
20260503004600 19 0 0.0 3.2 0.00 0.08 0.08 76 1012.1
20260503003100 19 0 0.0 1.6 0.00 0.08 0.08 75 1012.1
20260503001554 18 0 0.0 3.2 0.00 0.08 0.08 75 1012.0
20260503000052 18 0 0.0 4.8 0.00 0.08 0.08 77 1012.1
20260502234555 18 0 0.0 1.6 0.00 0.08 0.08 76 1012.0
20260502233053 18 0 0.0 3.2 0.00 0.08 0.08 75 1012.0
20260502231553 18 0 0.0 4.8 0.00 0.08 0.08 75 1012.2
20260502230057 18 0 0.0 6.4 0.00 0.08 0.08 75 1012.3
20260502224608 18 0 0.0 8.0 0.00 0.08 0.08 76 1012.5
20260502223056 18 0 1.6 9.7 0.00 0.08 0.08 77 1012.9
20260502221552 17 0 1.6 6.4 0.00 0.08 0.08 74 1013.2
20260502220059 17 348 1.6 6.4 0.00 0.08 0.08 76 1013.4
20260502214553 17 315 0.0 6.4 0.00 0.08 0.08 76 1013.5
20260502213103 16 13 0.0 4.8 0.00 0.08 0.08 80 1013.6
20260502211617 16 325 0.0 8.0 0.00 0.08 0.08 78 1013.7
20260502210105 17 0 0.0 16.1 0.00 0.08 0.08 77 1014.0
20260502204550 16 265 1.6 9.7 0.00 0.08 0.08 83 1014.1
20260502203057 15 286 1.6 6.4 0.00 0.08 0.08 85 1014.3
20260502201559 15 18 1.6 4.8 0.00 0.08 0.08 83 1014.7
20260502200049 15 319 0.0 4.8 0.00 0.08 0.08 84 1014.8
20260502194602 14 0 3.2 6.4 0.00 0.08 0.08 83 1014.9
20260502193052 13 231 3.2 9.7 0.00 0.08 0.08 86 1015.2
20260502191555 12 0 3.2 11.3 0.00 0.08 0.08 88 1015.2
20260502190057 12 0 0.0 1.6 0.00 0.08 0.08 90 1015.1
20260502184600 11 0 0.0 0.0 0.00 0.08 0.08 91 1014.9
20260502183108 11 0 0.0 0.0 0.00 0.08 0.08 92 1014.9
20260502181554 11 0 0.0 3.2 0.00 0.08 0.08 91 1015.3
20260502163057 8 0 0.0 0.0 0.00 0.08 0.08 96 1015.8
20260502161554 9 0 0.0 0.0 0.00 0.08 0.08 96 1015.8
20260502151602 8 0 0.0 1.6 0.00 0.08 0.08 97 1015.8
20260502123056 8 0 0.0 6.4 0.00 0.08 0.08 97 1015.9
20260502121551 8 260 0.0 9.7 0.00 0.08 0.08 97 1015.8
20260502114605 8 140 0.0 9.7 0.00 0.08 0.08 97 1015.5
20260502113057 8 0 0.0 0.0 0.00 0.08 0.08 97 1015.5
20260502111556 8 0 0.0 0.0 0.00 0.08 0.08 97 1015.3
20260502110053 8 0 0.0 6.4 0.00 0.08 0.08 97 1015.6
20260502104556 8 243 0.0 3.2 0.00 0.08 0.08 96 1015.5
20260502103053 8 0 0.0 1.6 0.00 0.08 0.08 96 1015.2
20260502101618 8 0 0.0 0.0 0.03 0.08 0.08 96 1015.5
20260502090107 9 0 0.0 3.2 0.05 0.05 0.05 94 1016.6
20260502070114 10 0 0.0 1.6 0.00 0.00 0.00 90 1016.8
20260502064556 10 168 0.0 6.4 0.00 0.00 0.00 91 1016.7
20260502063059 11 0 0.0 1.6 0.00 0.00 0.00 89 1016.5
20260502061602 11 190 0.0 6.4 0.00 0.00 0.00 88 1016.6
20260502060053 11 0 0.0 4.8 0.00 0.00 0.00 86 1016.6
20260502054556 12 0 1.6 6.4 0.00 0.00 0.00 84 1016.4
20260502053056 12 227 0.0 3.2 0.00 0.00 0.00 83 1016.5
20260502051620 13 0 0.0 3.2 0.00 0.00 0.00 83 1016.5
20260502050056 13 0 0.0 3.2 0.00 0.00 0.00 82 1016.4
20260502044555 13 0 0.0 9.7 0.00 0.00 0.00 79 1016.0
20260502043057 14 271 1.6 6.4 0.00 0.00 0.00 77 1015.9
20260502041554 15 0 0.0 4.8 0.00 0.00 0.00 76 1015.9
20260502040059 15 0 0.0 6.4 0.00 0.00 0.00 74 1015.9
20260502034554 16 0 0.0 3.2 0.00 0.00 0.00 73 1015.6
20260502033049 16 309 0.0 4.8 0.00 0.00 0.00 70 1015.3
20260502031553 17 0 0.0 4.8 0.00 0.00 0.00 67 1015.1
20260502030104 17 0 0.0 4.8 0.00 0.00 0.00 62 1015.0
20260502024553 18 0 0.0 8.0 0.00 0.00 0.00 61 1014.9
20260502023120 18 0 0.0 4.8 0.00 0.00 0.00 61 1014.8
20260502021553 18 325 0.0 8.0 0.00 0.00 0.00 64 1014.7